Regional Weather Roundup
Issued by NWS

Home | Current Version | Previous Version | Graphics & Text | Print | Product List | Glossary On
Versions: 1 2 3 4 5 6 7 8 9 10 11 12 13 14 15 16 17 18 19 20 21 22 23 24 25 26 27 28 29 30 31 32 33 34 35 36 37 38 39 40 41 42 43 44 45 46 47 48 49 50
000
ASUS45 KSLC 311610
RWRUT

UTAH REGIONAL WEATHER ROUNDUP
NATIONAL WEATHER SERVICE SALT LAKE CITY UT
1000 AM MDT SUN AUG 31 2014

UTZ001>011-023>025-311700-

NORTHERN UTAH

CITY           SKY/WX    TMP DP  RH WIND       PRES   REMARKS
HILL AFB       SUNNY     64  44  47 NW5       30.05
LOGAN          NOT AVBL
OGDEN          NOT AVBL
PROVO AIRPORT  NOT AVBL
SALT LAKE CITY NOT AVBL
VERNAL         PTSUNNY   64  45  49 NE16      30.00
WENDOVER       NOT AVBL
WEST JORDAN    MOSUNNY   66  52  59 N5        30.05

$$

UTZ012>022-026-027-311700-

SOUTHERN UTAH

CITY           SKY/WX    TMP DP  RH WIND       PRES   REMARKS
CEDAR CITY     NOT AVBL
MILFORD        NOT AVBL
MOAB/CYNLANDS  NOT AVBL
PRICE          NOT AVBL
ST GEORGE      NOT AVBL

$$

REGIONAL REPORTS     COLORADO/ARIZONA

CITY           SKY/WX    TMP DP  RH WIND       PRES   REMARKS
CRAIG, CO      NOT AVBL
GRAND JUNCTION MOSUNNY   74  42  31 SE9       29.92R
RIFLE          NOT AVBL
MONTROSE       NOT AVBL
CORTEZ         NOT AVBL
PAGE, AZ       NOT AVBL
GRAND CANYON   NOT AVBL
KINGMAN        NOT AVBL
FLAGSTAFF      SUNNY     70  38  31 SW10G25   30.24S

$$

REGIONAL REPORTS    NEVADA/IDAHO/WYOMING

CITY           SKY/WX    TMP DP  RH WIND       PRES   REMARKS
LAS VEGAS, NV  NOT AVBL
ELY            NOT AVBL
ELKO           NOT AVBL
POCATELLO, ID  NOT AVBL
EVANSTON, WY   NOT AVBL
ROCK SPRINGS   NOT AVBL

$$



USA.gov is the U.S. government's official web portal to all federal, state and local government web resources and services.